Home > Weather > Cahul > Past weeks

Flag for Moldova Past Weather in Cahul, Moldova — Yesterday and Last 2 Weeks

Now
59 °F

Thunderstorms. Overcast.


Feels Like: 59 °F
Forecast: 54 / 67 °F
Wind: 2 mph from South

Location: Galati

Current Time: May 25, 2016 at 2:44:15 AM

Latest Report: May 25, 2016 at 2:00 AM


Visibility: 6 mi

Pressure: 29.56 "Hg

Humidity: 100%

Dew Point: 59 °F

Location of CahulLocation

Past Weather in Cahul — Graph

°F

Cahul Temperature Yesterday

Maximum temperature yesterday: 78 °F (at 4:00 PM)
Minimum temperature yesterday: 60 °F (at 11:00 PM)
Average temperature yesterday: 68 °F

High & Low Weather Summary for the Past Weeks

 TemperatureHumidityPressure
High80 °F (May 23, 5:00 PM)100% (May 25, 12:00 AM)30.19 "Hg (May 25, 12:00 AM)
Low42 °F (May 19, 6:00 AM)27% (May 22, 3:00 PM)29.44 "Hg (May 13, 4:00 PM)
Average62 °F67%29.88 "Hg
* Reported May 10 1:00 AM — May 25 1:00 AM, Cahul, Weather by CustomWeather, © 2016

Note: Actual official high and low records may vary slightly from our data, if they occured in-between our weather recording intervals... More about our weather records

Advertising

Cahul Weather History for the Previous 24 Hours

Scroll right to see more
 ConditionsComfort  
Time TempWeatherWind HumidityBarometerVisibility
1:00 AM
Wed, May 25
59 °FThunderstorms. Overcast.1 mph100%29.56 "Hg6 mi
12:00 AM60 °FThunderstorms. Overcast.1 mph100%29.58 "Hg6 mi
11:00 PM
Tue, May 24
60 °FThundershowers. Overcast.2 mph99%29.61 "Hg6 mi
10:00 PM61 °FThundershowers. Overcast.5 mph95%29.60 "Hg6 mi
9:00 PM66 °FOvercast.3 mph64%29.58 "Hg12 mi
8:00 PM69 °FOvercast.3 mph56%29.60 "Hg12 mi
7:00 PM71 °FOvercast.5 mph51%29.62 "Hg12 mi
6:00 PM74 °FOvercast.5 mph49%29.64 "Hg12 mi
5:00 PM76 °FOvercast.5 mph46%29.64 "Hg12 mi
4:00 PM78 °FPartly sunny.5 mph43%29.66 "Hg12 mi
3:00 PM76 °FPartly sunny.5 mph46%29.69 "Hg12 mi
2:00 PM74 °FPartly sunny.3 mph52%29.73 "Hg12 mi
1:00 PM72 °FOvercast.3 mph49%29.75 "Hg12 mi
12:00 PM75 °FPartly sunny.3 mph52%29.78 "Hg12 mi
11:00 AM69 °FOvercast.2 mph64%29.78 "Hg12 mi
10:00 AM66 °FOvercast.2 mph68%29.80 "Hg12 mi
9:00 AM66 °FOvercast.1 mph73%29.81 "Hg12 mi
8:00 AM63 °FOvercast.2 mph79%29.81 "Hg12 mi
7:00 AM63 °FOvercast.2 mph77%29.82 "Hg12 mi
6:00 AM61 °FPartly sunny.1 mph81%29.84 "Hg12 mi
5:00 AM63 °FPassing clouds.2 mph74%29.84 "Hg12 mi
3:00 AM65 °FPassing clouds.3 mph68%29.85 "Hg12 mi
2:00 AM66 °FOvercast.3 mph61%29.86 "Hg12 mi
Weather by CustomWeather, © 2016

See weather overviewHow to use our weather pages